Weather History for Sussex, NJ

Change the Weather History Date:

Sunday, April 6, 2014

  Actual Average Record
Temperature  
Mean Temperature 46 °F -  
Max Temperature 62 °F 54 °F 80 °F (1985)
Min Temperature 30 °F 32 °F 19 °F (1970)
Degree Days  
Heating Degree Days 20    
Moisture  
Dew Point 21 °F    
Average Humidity 44    
Maximum Humidity 68    
Minimum Humidity 15    
Precipitation  
Precipitation 0.00 in - - ()
Sea Level Pressure  
Sea Level Pressure 30.16 in    
Wind  
Wind Speed 4 mph (WNW)    
Max Wind Speed 10 mph    
Max Gust Speed 17 mph    
Visibility 10 miles    
Events      
Averages and records for this station are not official NWS values.
T = Trace of Precipitation, MM = Missing Value Source: NWS Daily Summary

Daily Weather History Graph

Daily Weather History Graph

Search for Another Location

Airport:

Trip Planner

Search our weather history database for the weather conditions in past years. The results will help you decide how hot, cold, wet, or windy it might be!

Date:

Astronomy

Apr. 06, 2014 Rise Set
Actual Time 6:33 AM EDT 7:28 PM EDT
Civil Twilight 6:05 AM EDT 7:57 PM EDT
Nautical Twilight 5:32 AM EDT 8:30 PM EDT
Astronomical Twilight 4:57 AM EDT 9:05 PM EDT
Moon 11:30 AM EDT (4/6) 1:24 AM EDT (4/6)
Length of Visible Light 13h 51m
Length of Day
12h 55m
Waxing Crescent, 43% of the Moon is Illuminated
Apr 6
Waxing Crescent
Apr 7
First Quarter
Apr 15
Full
Apr 22
Last Quarter
Apr 29
New

Hourly Weather History & Observations

Time (EDT) Temp. Windchill Dew Point Humidity Pressure Visibility Wind Dir Wind Speed Gust Speed Precip Events Conditions
12:53 AM 37.0 °F 33.3 °F 21.0 °F 52% 30.10 in 10.0 mi NW 4.6 mph - N/A   Clear
1:53 AM 36.0 °F 30.3 °F 21.0 °F 55% 30.10 in 10.0 mi Variable 6.9 mph - N/A   Clear
2:53 AM 34.0 °F 31.0 °F 21.0 °F 59% 30.09 in 10.0 mi West 3.5 mph - N/A   Clear
3:53 AM 34.0 °F - 21.0 °F 59% 30.10 in 10.0 mi Calm Calm - N/A   Clear
4:53 AM 30.0 °F - 19.9 °F 66% 30.13 in 10.0 mi Calm Calm - N/A   Clear
5:53 AM 30.9 °F - 21.0 °F 67% 30.15 in 10.0 mi Calm Calm - N/A   Clear
6:53 AM 32.0 °F - 19.9 °F 61% 30.19 in 10.0 mi Calm Calm - N/A   Clear
7:53 AM 36.0 °F 33.3 °F 21.9 °F 57% 30.20 in 10.0 mi Variable 3.5 mph - N/A   Clear
8:53 AM 39.0 °F 32.3 °F 21.9 °F 50% 30.20 in 10.0 mi North 10.4 mph - N/A   Clear
9:53 AM 43.0 °F 38.2 °F 21.9 °F 43% 30.19 in 10.0 mi North 8.1 mph - N/A   Clear
10:53 AM 46.0 °F 43.1 °F 21.0 °F 37% 30.19 in 10.0 mi NNE 5.8 mph 17.3 mph N/A   Clear
11:53 AM 50.0 °F - 21.0 °F 32% 30.19 in 10.0 mi Variable 3.5 mph - N/A   Clear
12:53 PM 53.1 °F - 19.0 °F 26% 30.17 in 10.0 mi Variable 6.9 mph - N/A   Clear
1:53 PM 57.0 °F - 14.0 °F 18% 30.17 in 10.0 mi Variable 5.8 mph - N/A   Clear
2:53 PM 59.0 °F - 16.0 °F 19% 30.16 in 10.0 mi North - - N/A   Clear
3:53 PM 61.0 °F - 12.9 °F 15% 30.14 in 10.0 mi West 6.9 mph - N/A   Clear
4:53 PM 61.0 °F - 14.0 °F 16% 30.12 in 10.0 mi Variable 3.5 mph - N/A   Clear
6:53 PM 59.0 °F - 15.1 °F 18% 30.11 in 10.0 mi Calm Calm - N/A   Clear
7:53 PM 51.1 °F - 21.0 °F 31% 30.14 in 10.0 mi Calm Calm - N/A   Clear
8:53 PM 48.0 °F - 26.1 °F 42% 30.19 in 10.0 mi Calm Calm - N/A   Clear
9:53 PM 39.9 °F - 27.0 °F 60% 30.19 in 10.0 mi Calm Calm - N/A   Clear
10:53 PM 39.0 °F 36.8 °F 28.0 °F 65% 30.19 in 10.0 mi WSW 3.5 mph - N/A   Clear
11:53 PM 37.9 °F 35.5 °F 28.0 °F 68% 30.20 in 10.0 mi SW 3.5 mph - N/A   Clear